Location: Julian California
(33.0790°N, 116.6010°W)
Time: 10:33:37
(UTC-07:00)

Cosmos 1943 Rocket - Pass Details

Date: 19 May 2017
Orbit: 813 x 843 km, 71.0° (Epoch: 23 September)

Event Time Altitude Azimuth Distance (km) Brightness Sun altitude
Rises 20:05:44 0° 358° (N) 3,382 5.8 -5.3°
Reaches altitude 10° 20:09:14 10° 20° (NNE) 2,438 4.7 -5.9°
Maximum altitude 20:12:32 16° 57° (ENE) 2,050 4.0 -6.5°
Drops below altitude 10° 20:15:48 10° 93° (E) 2,419 4.0 -7.1°
Enters shadow 20:16:49 - 101° (ESE) 2,657 4.2 -7.3°
